Weather in Dubrovitsya

Ukraine / Rovno District     51°34′33″N   26°33′34″E
temp.,
°C
wind,
m/s
gust,
m/s
humid.,
%
clouds,
%
prec.,
mm/h
press.,
hPa
HPBL,
m
25 february, thu
thu2523:00+3wsw2399100 0.0 103235
02:00+4wsw3799100 0.0 1032116
05:00+4wsw46100100 0.0 1030113
08:00+4w3699100 0.0 1030121
11:00+5w3799100 0.0 1030170
14:00+8wsw369487 0.0 1029318
17:00+6wsw239536 0.0 102823
20:00+4wsw349420 0.0 102838
26 february, fri
fri2623:00+3sw44920 0.0 102771
02:00+3wsw47890 0.0 1025127
05:00+2wsw48920 0.0 1024146
08:00+3w410940 0.0 1023224
11:00+7w599230 0.0 1022338
14:00+10w6108655 0.0 1021763
17:00+8w41185100 0.0 1020528
20:00+6wnw51380100 0.0 1020626
27 february, sat
sat2723:00+5wnw51381100 0.0 1020737
02:00+3wnw6138478 0.0 1020730
05:00+3wnw61381100 0.0 1018761
08:00+3wnw71485100 0.0 1018883
11:00+5nw9147470 0.1 10181426
14:00+4nw8137385 0.4 10191321
17:00+4nnw71373100 0.1 10201204
20:00+3nnw41180100 0.1 10221008
28 february, sun
sun2823:00+1nnw51094100 0.1 1023599
02:000nnw4108982 0.3 1026450
05:00−1nnw499113 0.0 1027444
08:00−1nnw588638 0.0 1028663
11:00+1nw5778100 0.1 1028823
14:00+2nnw5875100 0.1 1029892
17:00+2nw4975100 0.0 1028777
20:00+1nw397893 0.0 1030233
1 march, mon
mon123:000nw388077 0.0 1030218
02:000wnw359885 0.2 1030188
05:00+1wnw3698100 2.1 1030245
08:00+1nnw2598100 2.9 1031216
11:00+2nnw2396100 0.0 1033245
14:00+3n1187100 0.1 1034281
17:00+2nnw1187100 0.0 103522
20:00+2s1186100 0.1 103622